owner,sensor,date,latitude,longitude,sea_surface_height_above_sea_level,qcFlag 
TCOON,ioos:station:TCOON:013:1,2015-02-02T21:30:00Z,27.4847,-97.3181,0.605,1111122 
TCOON,ioos:station:TCOON:013:1,2015-02-02T22:30:00Z,27.4847,-97.3181,0.599,1111122 
TCOON,ioos:station:TCOON:013:1,2015-02-02T23:12:00Z,27.4847,-97.3181,0.595,1111122 
TCOON,ioos:station:TCOON:013:1,2015-02-03T00:18:00Z,27.4847,-97.3181,0.589,1111122 
TCOON,ioos:station:TCOON:013:1,2015-02-03T01:24:00Z,27.4847,-97.3181,0.592,1111122 
TCOON,ioos:station:TCOON:013:1,2015-02-03T02:18:00Z,27.4847,-97.3181,0.593,1111122 
TCOON,ioos:station:TCOON:013:1,2015-02-03T03:12:00Z,27.4847,-97.3181,0.603,1111122 
TCOON,ioos:station:TCOON:013:1,2015-02-03T04:18:00Z,27.4847,-97.3181,0.611,1111122 
TCOON,ioos:station:TCOON:013:1,2015-02-03T05:18:00Z,27.4847,-97.3181,0.614,1111122 
TCOON,ioos:station:TCOON:013:1,2015-02-03T06:18:00Z,27.4847,-97.3181,0.619,1111122 
TCOON,ioos:station:TCOON:013:1,2015-02-03T07:18:00Z,27.4847,-97.3181,0.624,1111122 
TCOON,ioos:station:TCOON:013:1,2015-02-03T08:18:00Z,27.4847,-97.3181,0.626,1111122 
TCOON,ioos:station:TCOON:013:1,2015-02-03T09:18:00Z,27.4847,-97.3181,0.63,1111122 
TCOON,ioos:station:TCOON:013:1,2015-02-03T10:18:00Z,27.4847,-97.3181,0.634,1111122 
TCOON,ioos:station:TCOON:013:1,2015-02-03T11:12:00Z,27.4847,-97.3181,0.634,1111122 
TCOON,ioos:station:TCOON:013:1,2015-02-03T12:18:00Z,27.4847,-97.3181,0.629,1111122 
TCOON,ioos:station:TCOON:013:1,2015-02-03T13:18:00Z,27.4847,-97.3181,0.632,1111122 
TCOON,ioos:station:TCOON:013:1,2015-02-03T14:18:00Z,27.4847,-97.3181,0.631,1111122 
TCOON,ioos:station:TCOON:013:1,2015-02-03T15:18:00Z,27.4847,-97.3181,0.629,1111122 
TCOON,ioos:station:TCOON:013:1,2015-02-03T16:18:00Z,27.4847,-97.3181,0.625,1111122 
TCOON,ioos:station:TCOON:013:1,2015-02-03T17:18:00Z,27.4847,-97.3181,0.622,1111122 
TCOON,ioos:station:TCOON:013:1,2015-02-03T18:18:00Z,27.4847,-97.3181,0.622,1111122 
TCOON,ioos:station:TCOON:013:1,2015-02-03T19:18:00Z,27.4847,-97.3181,0.615,1111122 
TCOON,ioos:station:TCOON:013:1,2015-02-03T20:18:00Z,27.4847,-97.3181,0.61,1111122 
TCOON,ioos:station:TCOON:013:1,2015-02-03T21:18:00Z,27.4847,-97.3181,0.603,1111122 
TCOON,ioos:station:TCOON:013:1,2015-02-03T22:18:00Z,27.4847,-97.3181,0.604,1111122 
TCOON,ioos:station:TCOON:013:1,2015-02-03T23:12:00Z,27.4847,-97.3181,0.6,1111122 
TCOON,ioos:station:TCOON:013:1,2015-02-04T00:18:00Z,27.4847,-97.3181,0.605,1111122 
TCOON,ioos:station:TCOON:013:1,2015-02-04T01:24:00Z,27.4847,-97.3181,0.608,1111122 
TCOON,ioos:station:TCOON:013:1,2015-02-04T02:18:00Z,27.4847,-97.3181,0.603,1111122 
TCOON,ioos:station:TCOON:013:1,2015-02-04T03:12:00Z,27.4847,-97.3181,0.608,1111122 
TCOON,ioos:station:TCOON:013:1,2015-02-04T04:12:00Z,27.4847,-97.3181,0.607,1111122 
TCOON,ioos:station:TCOON:013:1,2015-02-04T05:18:00Z,27.4847,-97.3181,0.613,1111122 
TCOON,ioos:station:TCOON:013:1,2015-02-04T06:18:00Z,27.4847,-97.3181,0.617,1111122 
TCOON,ioos:station:TCOON:013:1,2015-02-04T07:18:00Z,27.4847,-97.3181,0.622,1111122 
TCOON,ioos:station:TCOON:013:1,2015-02-04T08:18:00Z,27.4847,-97.3181,0.634,1111122 
TCOON,ioos:station:TCOON:013:1,2015-02-04T09:12:00Z,27.4847,-97.3181,0.652,1111122 
TCOON,ioos:station:TCOON:013:1,2015-02-04T10:12:00Z,27.4847,-97.3181,0.648,1111122 
TCOON,ioos:station:TCOON:013:1,2015-02-04T11:24:00Z,27.4847,-97.3181,0.662,1111122 
TCOON,ioos:station:TCOON:013:1,2015-02-04T12:18:00Z,27.4847,-97.3181,0.672,1111122 
TCOON,ioos:station:TCOON:013:1,2015-02-04T13:18:00Z,27.4847,-97.3181,0.68,1111122 
TCOON,ioos:station:TCOON:013:1,2015-02-04T14:18:00Z,27.4847,-97.3181,0.687,1111122 
TCOON,ioos:station:TCOON:013:1,2015-02-04T15:18:00Z,27.4847,-97.3181,0.691,1111122 
TCOON,ioos:station:TCOON:013:1,2015-02-04T16:18:00Z,27.4847,-97.3181,0.696,1111122 
TCOON,ioos:station:TCOON:013:1,2015-02-04T17:18:00Z,27.4847,-97.3181,0.692,1111122 
TCOON,ioos:station:TCOON:013:1,2015-02-04T18:18:00Z,27.4847,-97.3181,0.683,1111122 
TCOON,ioos:station:TCOON:013:1,2015-02-04T19:18:00Z,27.4847,-97.3181,0.677,1111122 
TCOON,ioos:station:TCOON:013:1,2015-02-04T20:18:00Z,27.4847,-97.3181,0.669,1111122 
TCOON,ioos:station:TCOON:013:1,2015-02-04T21:18:00Z,27.4847,-97.3181,0.659,1111122 
TCOON,ioos:station:TCOON:013:1,2015-02-04T22:42:00Z,27.4847,-97.3181,0.657,1111122 
TCOON,ioos:station:TCOON:013:1,2015-02-04T23:24:00Z,27.4847,-97.3181,0.653,1111122 
TCOON,ioos:station:TCOON:013:1,2015-02-05T00:12:00Z,27.4847,-97.3181,0.648,1111122 
TCOON,ioos:station:TCOON:013:1,2015-02-05T01:18:00Z,27.4847,-97.3181,0.653,1111122 
TCOON,ioos:station:TCOON:013:1,2015-02-05T02:18:00Z,27.4847,-97.3181,0.657,1111122 
TCOON,ioos:station:TCOON:013:1,2015-02-05T03:12:00Z,27.4847,-97.3181,0.663,1111122 
TCOON,ioos:station:TCOON:013:1,2015-02-05T04:18:00Z,27.4847,-97.3181,0.672,1111122 
TCOON,ioos:station:TCOON:013:1,2015-02-05T05:12:00Z,27.4847,-97.3181,0.679,1111122 
TCOON,ioos:station:TCOON:013:1,2015-02-05T06:18:00Z,27.4847,-97.3181,0.691,1111122 
TCOON,ioos:station:TCOON:013:1,2015-02-05T07:12:00Z,27.4847,-97.3181,0.693,1111122 
TCOON,ioos:station:TCOON:013:1,2015-02-05T08:12:00Z,27.4847,-97.3181,0.696,1111122 
TCOON,ioos:station:TCOON:013:1,2015-02-05T09:12:00Z,27.4847,-97.3181,0.696,1111122 
TCOON,ioos:station:TCOON:013:1,2015-02-05T10:12:00Z,27.4847,-97.3181,0.703,1111122 
TCOON,ioos:station:TCOON:013:1,2015-02-05T11:12:00Z,27.4847,-97.3181,0.705,1111122 
TCOON,ioos:station:TCOON:013:1,2015-02-05T12:12:00Z,27.4847,-97.3181,0.709,1111122 
TCOON,ioos:station:TCOON:013:1,2015-02-05T13:12:00Z,27.4847,-97.3181,0.715,1111122 
TCOON,ioos:station:TCOON:013:1,2015-02-05T14:12:00Z,27.4847,-97.3181,0.715,1111122 
TCOON,ioos:station:TCOON:013:1,2015-02-05T15:18:00Z,27.4847,-97.3181,0.72,1111122 
TCOON,ioos:station:TCOON:013:1,2015-02-05T16:18:00Z,27.4847,-97.3181,0.723,1111122 
TCOON,ioos:station:TCOON:013:1,2015-02-05T17:18:00Z,27.4847,-97.3181,0.727,1111122 
TCOON,ioos:station:TCOON:013:1,2015-02-05T18:18:00Z,27.4847,-97.3181,0.726,1111122 
TCOON,ioos:station:TCOON:013:1,2015-02-05T19:18:00Z,27.4847,-97.3181,0.724,1111122 
TCOON,ioos:station:TCOON:013:1,2015-02-05T20:24:00Z,27.4847,-97.3181,0.717,1111122 
TCOON,ioos:station:TCOON:013:1,2015-02-05T21:18:00Z,27.4847,-97.3181,0.713,1111122 
TCOON,ioos:station:TCOON:013:1,2015-02-05T22:24:00Z,27.4847,-97.3181,0.703,1111122 
TCOON,ioos:station:TCOON:013:1,2015-02-05T23:18:00Z,27.4847,-97.3181,0.695,1111122 
TCOON,ioos:station:TCOON:013:1,2015-02-06T00:12:00Z,27.4847,-97.3181,0.689,1111122 
TCOON,ioos:station:TCOON:013:1,2015-02-06T01:18:00Z,27.4847,-97.3181,0.691,1111122 
TCOON,ioos:station:TCOON:013:1,2015-02-06T02:12:00Z,27.4847,-97.3181,0.685,1111122 
TCOON,ioos:station:TCOON:013:1,2015-02-06T03:12:00Z,27.4847,-97.3181,0.683,1111122 
TCOON,ioos:station:TCOON:013:1,2015-02-06T04:12:00Z,27.4847,-97.3181,0.685,1111122 
TCOON,ioos:station:TCOON:013:1,2015-02-06T05:12:00Z,27.4847,-97.3181,0.685,1111122 
TCOON,ioos:station:TCOON:013:1,2015-02-06T06:18:00Z,27.4847,-97.3181,0.687,1111122 
TCOON,ioos:station:TCOON:013:1,2015-02-06T07:12:00Z,27.4847,-97.3181,0.687,1111122 
TCOON,ioos:station:TCOON:013:1,2015-02-06T08:12:00Z,27.4847,-97.3181,0.684,1111122 
TCOON,ioos:station:TCOON:013:1,2015-02-06T09:12:00Z,27.4847,-97.3181,0.683,1111122 
TCOON,ioos:station:TCOON:013:1,2015-02-06T10:12:00Z,27.4847,-97.3181,0.683,1111122 
TCOON,ioos:station:TCOON:013:1,2015-02-06T11:12:00Z,27.4847,-97.3181,0.68,1111122 
TCOON,ioos:station:TCOON:013:1,2015-02-06T12:12:00Z,27.4847,-97.3181,0.676,1111122 
TCOON,ioos:station:TCOON:013:1,2015-02-06T13:12:00Z,27.4847,-97.3181,0.674,1111122 
TCOON,ioos:station:TCOON:013:1,2015-02-06T14:12:00Z,27.4847,-97.3181,0.668,1111122 
TCOON,ioos:station:TCOON:013:1,2015-02-06T15:18:00Z,27.4847,-97.3181,0.662,1111122 
TCOON,ioos:station:TCOON:013:1,2015-02-06T16:18:00Z,27.4847,-97.3181,0.656,1111122 
TCOON,ioos:station:TCOON:013:1,2015-02-06T17:18:00Z,27.4847,-97.3181,0.648,1111122 
TCOON,ioos:station:TCOON:013:1,2015-02-06T18:18:00Z,27.4847,-97.3181,0.642,1111122 
TCOON,ioos:station:TCOON:013:1,2015-02-06T19:12:00Z,27.4847,-97.3181,0.639,1111122 
TCOON,ioos:station:TCOON:013:1,2015-02-06T20:12:00Z,27.4847,-97.3181,0.635,1111122 
TCOON,ioos:station:TCOON:013:1,2015-02-06T21:12:00Z,27.4847,-97.3181,0.636,1111122 
TCOON,ioos:station:TCOON:013:1,2015-02-06T22:18:00Z,27.4847,-97.3181,0.63,1111122 
TCOON,ioos:station:TCOON:013:1,2015-02-06T23:12:00Z,27.4847,-97.3181,0.628,1111122 
TCOON,ioos:station:TCOON:013:1,2015-02-07T00:18:00Z,27.4847,-97.3181,0.624,1111122 
TCOON,ioos:station:TCOON:013:1,2015-02-07T01:24:00Z,27.4847,-97.3181,0.62,1111122 
TCOON,ioos:station:TCOON:013:1,2015-02-07T02:18:00Z,27.4847,-97.3181,0.623,1111122 
TCOON,ioos:station:TCOON:013:1,2015-02-07T03:12:00Z,27.4847,-97.3181,0.624,1111122 
TCOON,ioos:station:TCOON:013:1,2015-02-07T04:18:00Z,27.4847,-97.3181,0.628,1111122 
TCOON,ioos:station:TCOON:013:1,2015-02-07T05:12:00Z,27.4847,-97.3181,0.631,1111122 
TCOON,ioos:station:TCOON:013:1,2015-02-07T06:18:00Z,27.4847,-97.3181,0.636,1111122 
TCOON,ioos:station:TCOON:013:1,2015-02-07T07:12:00Z,27.4847,-97.3181,0.639,1111122 
TCOON,ioos:station:TCOON:013:1,2015-02-07T08:12:00Z,27.4847,-97.3181,0.642,1111122 
TCOON,ioos:station:TCOON:013:1,2015-02-07T09:12:00Z,27.4847,-97.3181,0.647,1111122 
TCOON,ioos:station:TCOON:013:1,2015-02-07T10:12:00Z,27.4847,-97.3181,0.645,1111122 
TCOON,ioos:station:TCOON:013:1,2015-02-07T11:12:00Z,27.4847,-97.3181,0.644,1111122 
TCOON,ioos:station:TCOON:013:1,2015-02-07T12:12:00Z,27.4847,-97.3181,0.643,1111122 
TCOON,ioos:station:TCOON:013:1,2015-02-07T13:12:00Z,27.4847,-97.3181,0.644,1111122 
TCOON,ioos:station:TCOON:013:1,2015-02-07T14:12:00Z,27.4847,-97.3181,0.645,1111122 
TCOON,ioos:station:TCOON:013:1,2015-02-07T15:12:00Z,27.4847,-97.3181,0.646,1111122 
TCOON,ioos:station:TCOON:013:1,2015-02-07T16:12:00Z,27.4847,-97.3181,0.645,1111122 
TCOON,ioos:station:TCOON:013:1,2015-02-07T17:12:00Z,27.4847,-97.3181,0.644,1111122 
TCOON,ioos:station:TCOON:013:1,2015-02-07T18:18:00Z,27.4847,-97.3181,0.643,1111122 
TCOON,ioos:station:TCOON:013:1,2015-02-07T19:12:00Z,27.4847,-97.3181,0.641,1111122 
TCOON,ioos:station:TCOON:013:1,2015-02-07T20:12:00Z,27.4847,-97.3181,0.641,1111122 
TCOON,ioos:station:TCOON:013:1,2015-02-07T21:12:00Z,27.4847,-97.3181,0.636,1111122 
TCOON,ioos:station:TCOON:013:1,2015-02-07T22:12:00Z,27.4847,-97.3181,0.631,1111122 
TCOON,ioos:station:TCOON:013:1,2015-02-07T23:12:00Z,27.4847,-97.3181,0.629,1111122 
TCOON,ioos:station:TCOON:013:1,2015-02-08T00:12:00Z,27.4847,-97.3181,0.627,1111122 
TCOON,ioos:station:TCOON:013:1,2015-02-08T01:18:00Z,27.4847,-97.3181,0.626,1111122 
TCOON,ioos:station:TCOON:013:1,2015-02-08T02:12:00Z,27.4847,-97.3181,0.626,1111122 
TCOON,ioos:station:TCOON:013:1,2015-02-08T03:12:00Z,27.4847,-97.3181,0.627,1111122 
TCOON,ioos:station:TCOON:013:1,2015-02-08T04:12:00Z,27.4847,-97.3181,0.632,1111122 
TCOON,ioos:station:TCOON:013:1,2015-02-08T05:12:00Z,27.4847,-97.3181,0.638,1111122 
TCOON,ioos:station:TCOON:013:1,2015-02-08T06:18:00Z,27.4847,-97.3181,0.642,1111122 
TCOON,ioos:station:TCOON:013:1,2015-02-08T07:12:00Z,27.4847,-97.3181,0.644,1111122 
TCOON,ioos:station:TCOON:013:1,2015-02-08T08:18:00Z,27.4847,-97.3181,0.648,1111122 
TCOON,ioos:station:TCOON:013:1,2015-02-08T09:18:00Z,27.4847,-97.3181,0.65,1111122 
TCOON,ioos:station:TCOON:013:1,2015-02-08T10:12:00Z,27.4847,-97.3181,0.653,1111122 
TCOON,ioos:station:TCOON:013:1,2015-02-08T11:12:00Z,27.4847,-97.3181,0.655,1111122 
TCOON,ioos:station:TCOON:013:1,2015-02-08T12:12:00Z,27.4847,-97.3181,0.655,1111122 
TCOON,ioos:station:TCOON:013:1,2015-02-08T13:12:00Z,27.4847,-97.3181,0.653,1111122 
TCOON,ioos:station:TCOON:013:1,2015-02-08T14:12:00Z,27.4847,-97.3181,0.65,1111122 
TCOON,ioos:station:TCOON:013:1,2015-02-08T15:12:00Z,27.4847,-97.3181,0.656,1111122 
TCOON,ioos:station:TCOON:013:1,2015-02-08T16:12:00Z,27.4847,-97.3181,0.65,1111122 
TCOON,ioos:station:TCOON:013:1,2015-02-08T17:12:00Z,27.4847,-97.3181,0.648,1111122 
TCOON,ioos:station:TCOON:013:1,2015-02-08T18:12:00Z,27.4847,-97.3181,0.644,1111122 
TCOON,ioos:station:TCOON:013:1,2015-02-08T19:12:00Z,27.4847,-97.3181,0.642,1111122 
TCOON,ioos:station:TCOON:013:1,2015-02-08T20:12:00Z,27.4847,-97.3181,0.639,1111122 
TCOON,ioos:station:TCOON:013:1,2015-02-08T21:12:00Z,27.4847,-97.3181,0.635,1111122 
TCOON,ioos:station:TCOON:013:1,2015-02-08T22:12:00Z,27.4847,-97.3181,0.631,1111122 
TCOON,ioos:station:TCOON:013:1,2015-02-08T23:12:00Z,27.4847,-97.3181,0.629,1111122 
TCOON,ioos:station:TCOON:013:1,2015-02-09T00:12:00Z,27.4847,-97.3181,0.627,1111122 
TCOON,ioos:station:TCOON:013:1,2015-02-09T01:12:00Z,27.4847,-97.3181,0.622,1111122 
TCOON,ioos:station:TCOON:013:1,2015-02-09T02:18:00Z,27.4847,-97.3181,0.618,1111122 
TCOON,ioos:station:TCOON:013:1,2015-02-09T03:12:00Z,27.4847,-97.3181,0.618,1111122 
TCOON,ioos:station:TCOON:013:1,2015-02-09T04:12:00Z,27.4847,-97.3181,0.617,1111122 
TCOON,ioos:station:TCOON:013:1,2015-02-09T05:12:00Z,27.4847,-97.3181,0.616,1111122 
TCOON,ioos:station:TCOON:013:1,2015-02-09T06:12:00Z,27.4847,-97.3181,0.616,1111122 
TCOON,ioos:station:TCOON:013:1,2015-02-09T07:12:00Z,27.4847,-97.3181,0.614,1111122 
TCOON,ioos:station:TCOON:013:1,2015-02-09T08:12:00Z,27.4847,-97.3181,0.614,1111122 
TCOON,ioos:station:TCOON:013:1,2015-02-09T09:12:00Z,27.4847,-97.3181,0.61,1111122 
TCOON,ioos:station:TCOON:013:1,2015-02-09T10:12:00Z,27.4847,-97.3181,0.605,1111122 
TCOON,ioos:station:TCOON:013:1,2015-02-09T11:12:00Z,27.4847,-97.3181,0.6,1111122 
TCOON,ioos:station:TCOON:013:1,2015-02-09T12:12:00Z,27.4847,-97.3181,0.595,1111122 
TCOON,ioos:station:TCOON:013:1,2015-02-09T13:12:00Z,27.4847,-97.3181,0.585,1111122 
TCOON,ioos:station:TCOON:013:1,2015-02-09T14:12:00Z,27.4847,-97.3181,0.582,1111122 
TCOON,ioos:station:TCOON:013:1,2015-02-09T15:12:00Z,27.4847,-97.3181,0.574,1111122 
TCOON,ioos:station:TCOON:013:1,2015-02-09T16:18:00Z,27.4847,-97.3181,0.573,1111122 
TCOON,ioos:station:TCOON:013:1,2015-02-09T17:18:00Z,27.4847,-97.3181,0.574,1111122 
TCOON,ioos:station:TCOON:013:1,2015-02-09T18:18:00Z,27.4847,-97.3181,0.57,1111122 
TCOON,ioos:station:TCOON:013:1,2015-02-09T19:18:00Z,27.4847,-97.3181,0.564,1111122 
TCOON,ioos:station:TCOON:013:1,2015-02-09T20:18:00Z,27.4847,-97.3181,0.57,1111122 
TCOON,ioos:station:TCOON:013:1,2015-02-09T21:18:00Z,27.4847,-97.3181,0.564,1111122 
TCOON,ioos:station:TCOON:013:1,2015-02-09T22:18:00Z,27.4847,-97.3181,0.557,1111122 
TCOON,ioos:station:TCOON:013:1,2015-02-09T23:24:00Z,27.4847,-97.3181,0.557,1111122 
TCOON,ioos:station:TCOON:013:1,2015-02-10T00:18:00Z,27.4847,-97.3181,0.558,1111122 
TCOON,ioos:station:TCOON:013:1,2015-02-10T01:30:00Z,27.4847,-97.3181,0.558,1111122 
TCOON,ioos:station:TCOON:013:1,2015-02-10T02:18:00Z,27.4847,-97.3181,0.559,1111122 
TCOON,ioos:station:TCOON:013:1,2015-02-10T03:12:00Z,27.4847,-97.3181,0.527,1111122 
TCOON,ioos:station:TCOON:013:1,2015-02-10T04:18:00Z,27.4847,-97.3181,0.564,1111122 
TCOON,ioos:station:TCOON:013:1,2015-02-10T05:18:00Z,27.4847,-97.3181,0.564,1111122 
TCOON,ioos:station:TCOON:013:1,2015-02-10T06:18:00Z,27.4847,-97.3181,0.564,1111122 
TCOON,ioos:station:TCOON:013:1,2015-02-10T07:12:00Z,27.4847,-97.3181,0.563,1111122 
TCOON,ioos:station:TCOON:013:1,2015-02-10T08:12:00Z,27.4847,-97.3181,0.564,1111122 
TCOON,ioos:station:TCOON:013:1,2015-02-10T09:18:00Z,27.4847,-97.3181,0.561,1111122 
TCOON,ioos:station:TCOON:013:1,2015-02-10T10:12:00Z,27.4847,-97.3181,0.559,1111122 
TCOON,ioos:station:TCOON:013:1,2015-02-10T11:12:00Z,27.4847,-97.3181,0.555,1111122 
TCOON,ioos:station:TCOON:013:1,2015-02-10T12:24:00Z,27.4847,-97.3181,0.552,1111122 
TCOON,ioos:station:TCOON:013:1,2015-02-10T13:18:00Z,27.4847,-97.3181,0.551,1111122 
TCOON,ioos:station:TCOON:013:1,2015-02-10T14:12:00Z,27.4847,-97.3181,0.547,1111122 
TCOON,ioos:station:TCOON:013:1,2015-02-10T15:18:00Z,27.4847,-97.3181,0.54,1111122 
TCOON,ioos:station:TCOON:013:1,2015-02-10T16:18:00Z,27.4847,-97.3181,0.537,1111122 
TCOON,ioos:station:TCOON:013:1,2015-02-10T17:18:00Z,27.4847,-97.3181,0.531,1111122 
TCOON,ioos:station:TCOON:013:1,2015-02-10T18:12:00Z,27.4847,-97.3181,0.53,1111122 
TCOON,ioos:station:TCOON:013:1,2015-02-10T19:18:00Z,27.4847,-97.3181,0.531,1111122 
TCOON,ioos:station:TCOON:013:1,2015-02-10T20:18:00Z,27.4847,-97.3181,0.53,1111122 
TCOON,ioos:station:TCOON:013:1,2015-02-10T21:18:00Z,27.4847,-97.3181,0.527,1111122 
TCOON,ioos:station:TCOON:013:1,2015-02-10T22:18:00Z,27.4847,-97.3181,0.525,1111122 
TCOON,ioos:station:TCOON:013:1,2015-02-10T23:18:00Z,27.4847,-97.3181,0.525,1111122 
TCOON,ioos:station:TCOON:013:1,2015-02-11T00:12:00Z,27.4847,-97.3181,0.527,1111122 
TCOON,ioos:station:TCOON:013:1,2015-02-11T01:12:00Z,27.4847,-97.3181,0.526,1111122 
TCOON,ioos:station:TCOON:013:1,2015-02-11T02:12:00Z,27.4847,-97.3181,0.524,1111122 
TCOON,ioos:station:TCOON:013:1,2015-02-11T03:18:00Z,27.4847,-97.3181,0.527,1111122 
TCOON,ioos:station:TCOON:013:1,2015-02-11T04:18:00Z,27.4847,-97.3181,0.531,1111122 
TCOON,ioos:station:TCOON:013:1,2015-02-11T05:36:00Z,27.4847,-97.3181,0.536,1111122 
TCOON,ioos:station:TCOON:013:1,2015-02-11T06:18:00Z,27.4847,-97.3181,0.541,1111122 
TCOON,ioos:station:TCOON:013:1,2015-02-11T07:12:00Z,27.4847,-97.3181,0.546,1111122 
TCOON,ioos:station:TCOON:013:1,2015-02-11T08:12:00Z,27.4847,-97.3181,0.551,1111122 
TCOON,ioos:station:TCOON:013:1,2015-02-11T09:12:00Z,27.4847,-97.3181,0.552,1111122 
TCOON,ioos:station:TCOON:013:1,2015-02-11T10:12:00Z,27.4847,-97.3181,0.551,1111122 
TCOON,ioos:station:TCOON:013:1,2015-02-11T11:12:00Z,27.4847,-97.3181,0.548,1111122 
TCOON,ioos:station:TCOON:013:1,2015-02-11T12:12:00Z,27.4847,-97.3181,0.551,1111122 
TCOON,ioos:station:TCOON:013:1,2015-02-11T13:12:00Z,27.4847,-97.3181,0.546,1111122 
TCOON,ioos:station:TCOON:013:1,2015-02-11T14:12:00Z,27.4847,-97.3181,0.542,1111122 
TCOON,ioos:station:TCOON:013:1,2015-02-11T15:18:00Z,27.4847,-97.3181,0.541,1111122 
TCOON,ioos:station:TCOON:013:1,2015-02-11T16:18:00Z,27.4847,-97.3181,0.537,1111122 
TCOON,ioos:station:TCOON:013:1,2015-02-11T17:18:00Z,27.4847,-97.3181,0.536,1111122 
TCOON,ioos:station:TCOON:013:1,2015-02-11T18:12:00Z,27.4847,-97.3181,0.535,1111122 
TCOON,ioos:station:TCOON:013:1,2015-02-11T19:18:00Z,27.4847,-97.3181,0.539,1111122 
TCOON,ioos:station:TCOON:013:1,2015-02-11T20:18:00Z,27.4847,-97.3181,0.539,1111122 
TCOON,ioos:station:TCOON:013:1,2015-02-11T21:18:00Z,27.4847,-97.3181,0.536,1111122 
TCOON,ioos:station:TCOON:013:1,2015-02-11T22:18:00Z,27.4847,-97.3181,0.539,1111122 
TCOON,ioos:station:TCOON:013:1,2015-02-11T23:18:00Z,27.4847,-97.3181,0.542,1111122 
TCOON,ioos:station:TCOON:013:1,2015-02-12T00:12:00Z,27.4847,-97.3181,0.553,1111122 
TCOON,ioos:station:TCOON:013:1,2015-02-12T01:18:00Z,27.4847,-97.3181,0.558,1111122 
TCOON,ioos:station:TCOON:013:1,2015-02-12T02:18:00Z,27.4847,-97.3181,0.567,1111122 
TCOON,ioos:station:TCOON:013:1,2015-02-12T03:12:00Z,27.4847,-97.3181,0.568,1111122 
TCOON,ioos:station:TCOON:013:1,2015-02-12T04:12:00Z,27.4847,-97.3181,0.572,1111122 
TCOON,ioos:station:TCOON:013:1,2015-02-12T05:18:00Z,27.4847,-97.3181,0.578,1111122 
TCOON,ioos:station:TCOON:013:1,2015-02-12T06:18:00Z,27.4847,-97.3181,0.585,1111122 
TCOON,ioos:station:TCOON:013:1,2015-02-12T07:12:00Z,27.4847,-97.3181,0.587,1111122 
TCOON,ioos:station:TCOON:013:1,2015-02-12T08:18:00Z,27.4847,-97.3181,0.594,1111122 
TCOON,ioos:station:TCOON:013:1,2015-02-12T09:12:00Z,27.4847,-97.3181,0.594,1111122 
TCOON,ioos:station:TCOON:013:1,2015-02-12T10:12:00Z,27.4847,-97.3181,0.599,1111122 
TCOON,ioos:station:TCOON:013:1,2015-02-12T11:12:00Z,27.4847,-97.3181,0.598,1111122 
TCOON,ioos:station:TCOON:013:1,2015-02-12T12:12:00Z,27.4847,-97.3181,0.589,1111122 
TCOON,ioos:station:TCOON:013:1,2015-02-12T13:18:00Z,27.4847,-97.3181,0.596,1111122 
TCOON,ioos:station:TCOON:013:1,2015-02-12T14:18:00Z,27.4847,-97.3181,0.59,1111122 
TCOON,ioos:station:TCOON:013:1,2015-02-12T15:18:00Z,27.4847,-97.3181,0.579,1111122 
TCOON,ioos:station:TCOON:013:1,2015-02-12T16:18:00Z,27.4847,-97.3181,0.585,1111122 
TCOON,ioos:station:TCOON:013:1,2015-02-12T17:18:00Z,27.4847,-97.3181,0.582,1111122 
TCOON,ioos:station:TCOON:013:1,2015-02-12T18:18:00Z,27.4847,-97.3181,0.573,1111122 
TCOON,ioos:station:TCOON:013:1,2015-02-12T19:18:00Z,27.4847,-97.3181,0.568,1111122 
TCOON,ioos:station:TCOON:013:1,2015-02-12T20:18:00Z,27.4847,-97.3181,0.561,1111122 
TCOON,ioos:station:TCOON:013:1,2015-02-12T21:12:00Z,27.4847,-97.3181,0.553,1111122 
TCOON,ioos:station:TCOON:013:1,2015-02-12T22:12:00Z,27.4847,-97.3181,0.553,1111122 
TCOON,ioos:station:TCOON:013:1,2015-02-12T23:12:00Z,27.4847,-97.3181,0.553,1111122 
TCOON,ioos:station:TCOON:013:1,2015-02-13T00:18:00Z,27.4847,-97.3181,0.552,1111122 
TCOON,ioos:station:TCOON:013:1,2015-02-13T01:18:00Z,27.4847,-97.3181,0.555,1111122 
TCOON,ioos:station:TCOON:013:1,2015-02-13T02:18:00Z,27.4847,-97.3181,0.555,1111122 
TCOON,ioos:station:TCOON:013:1,2015-02-13T03:12:00Z,27.4847,-97.3181,0.563,1111122 
TCOON,ioos:station:TCOON:013:1,2015-02-13T04:12:00Z,27.4847,-97.3181,0.568,1111122 
TCOON,ioos:station:TCOON:013:1,2015-02-13T05:18:00Z,27.4847,-97.3181,0.556,1111122 
TCOON,ioos:station:TCOON:013:1,2015-02-13T06:18:00Z,27.4847,-97.3181,0.585,1111122 
TCOON,ioos:station:TCOON:013:1,2015-02-13T07:12:00Z,27.4847,-97.3181,0.594,1111122 
TCOON,ioos:station:TCOON:013:1,2015-02-13T08:12:00Z,27.4847,-97.3181,0.601,1111122 
TCOON,ioos:station:TCOON:013:1,2015-02-13T09:18:00Z,27.4847,-97.3181,0.608,1111122 
TCOON,ioos:station:TCOON:013:1,2015-02-13T10:12:00Z,27.4847,-97.3181,0.614,1111122 
TCOON,ioos:station:TCOON:013:1,2015-02-13T11:12:00Z,27.4847,-97.3181,0.61,1111122 
TCOON,ioos:station:TCOON:013:1,2015-02-13T12:12:00Z,27.4847,-97.3181,0.609,1111122 
TCOON,ioos:station:TCOON:013:1,2015-02-13T13:12:00Z,27.4847,-97.3181,0.606,1111122 
TCOON,ioos:station:TCOON:013:1,2015-02-13T14:12:00Z,27.4847,-97.3181,0.601,1111122 
TCOON,ioos:station:TCOON:013:1,2015-02-13T15:12:00Z,27.4847,-97.3181,0.593,1111122 
TCOON,ioos:station:TCOON:013:1,2015-02-13T16:12:00Z,27.4847,-97.3181,0.583,1111122 
TCOON,ioos:station:TCOON:013:1,2015-02-13T17:18:00Z,27.4847,-97.3181,0.573,1111122 
TCOON,ioos:station:TCOON:013:1,2015-02-13T18:12:00Z,27.4847,-97.3181,0.567,1111122 
TCOON,ioos:station:TCOON:013:1,2015-02-13T19:12:00Z,27.4847,-97.3181,0.562,1111122 
TCOON,ioos:station:TCOON:013:1,2015-02-13T20:12:00Z,27.4847,-97.3181,0.566,1111122 
TCOON,ioos:station:TCOON:013:1,2015-02-13T21:18:00Z,27.4847,-97.3181,0.562,1111122 
TCOON,ioos:station:TCOON:013:1,2015-02-13T22:12:00Z,27.4847,-97.3181,0.563,1111122 
TCOON,ioos:station:TCOON:013:1,2015-02-13T23:12:00Z,27.4847,-97.3181,0.57,1111122 
TCOON,ioos:station:TCOON:013:1,2015-02-14T00:18:00Z,27.4847,-97.3181,0.576,1111122 
TCOON,ioos:station:TCOON:013:1,2015-02-14T01:54:00Z,27.4847,-97.3181,0.589,1111122 
TCOON,ioos:station:TCOON:013:1,2015-02-14T02:30:00Z,27.4847,-97.3181,0.593,1111122 
TCOON,ioos:station:TCOON:013:1,2015-02-14T03:12:00Z,27.4847,-97.3181,0.6,1111122 
TCOON,ioos:station:TCOON:013:1,2015-02-14T04:18:00Z,27.4847,-97.3181,0.608,1111122 
TCOON,ioos:station:TCOON:013:1,2015-02-14T05:12:00Z,27.4847,-97.3181,0.614,1111122 
TCOON,ioos:station:TCOON:013:1,2015-02-14T06:18:00Z,27.4847,-97.3181,0.618,1111122 
TCOON,ioos:station:TCOON:013:1,2015-02-14T07:12:00Z,27.4847,-97.3181,0.618,1111122 
TCOON,ioos:station:TCOON:013:1,2015-02-14T08:12:00Z,27.4847,-97.3181,0.616,1111122 
TCOON,ioos:station:TCOON:013:1,2015-02-14T09:12:00Z,27.4847,-97.3181,0.616,1111122 
TCOON,ioos:station:TCOON:013:1,2015-02-14T10:12:00Z,27.4847,-97.3181,0.61,1111122 
TCOON,ioos:station:TCOON:013:1,2015-02-14T11:12:00Z,27.4847,-97.3181,0.605,1111122 
TCOON,ioos:station:TCOON:013:1,2015-02-14T12:12:00Z,27.4847,-97.3181,0.601,1111122 
TCOON,ioos:station:TCOON:013:1,2015-02-14T13:12:00Z,27.4847,-97.3181,0.598,1111122 
TCOON,ioos:station:TCOON:013:1,2015-02-14T14:12:00Z,27.4847,-97.3181,0.595,1111122 
TCOON,ioos:station:TCOON:013:1,2015-02-14T15:12:00Z,27.4847,-97.3181,0.593,1111122 
TCOON,ioos:station:TCOON:013:1,2015-02-14T16:12:00Z,27.4847,-97.3181,0.585,1111122 
TCOON,ioos:station:TCOON:013:1,2015-02-14T17:12:00Z,27.4847,-97.3181,0.568,1111122 